Location: ČR
(50.0000°N, 15.0000°E)
Time: 07:25:39
(UTC+02:00)

A-11 Canister half - Pass Details

Date: 23 March 2026
Orbit: 1514 x 1685 km, 47.2° (Epoch: 18 April)

Event Time Altitude Azimuth Distance (km) Brightness Sun altitude
Rises 17:05:04 0° 285° (WNW) 4,895 12.9 10.7°
Reaches altitude 10° 17:08:16 10° 281° (W) 3,922 12.7 10.2°
Maximum altitude 17:17:59 55° 208° (SSW) 1,964 10.1 8.7°
Drops below altitude 10° 17:27:44 10° 134° (SE) 3,936 10.8 7.2°
Sets 17:30:58 0° 130° (SE) 4,913 11.2 6.6°
